Wind_Speed
17 22 24 25 26 26 26 26 27 28 28 29 30 30 30 30 29 29 28 27 27 27 27 26 25 24 22 20 19 18 17 16 14 12 11 11 12 12 11 10 9 7 6 6 6 4 3 1 1 1 2 2 3 2 2 1 1 1 2 3 5 5 7 8 8 7 7 7 6 4 4 5 5 5 4 3 1 2 2 2 3 3 2 2 2
19 23 25 26 27 28 28 28 28 29 30 30 30 30 30 31 31 30 30 29 28 28 27 26 25 24 21 19 18 18 17 16 14 13 12 12 13 13 12 11 10 9 8 7 7 5 4 3 2 1 2 2 3 2 2 1 1 2 2 3 4 5 5 7 7 6 6 6 5 5 5 4 4 4 3 2 1 1 0 1 2 3 3 2 2
20 23 25 26 27 29 29 29 29 29 30 30 29 30 31 31 32 32 32 31 29 28 28 26 25 24 23 21 20 19 19 17 17 16 16 15 15 14 14 12 11 10 9 9 8 6 5 4 3 1 1 2 2 2 2 1 1 1 1 2 3 3 5 6 6 6 6 5 5 5 6 5 4 4 3 2 0 1 1 1 1 2 2 2 1
20 22 25 27 27 29 30 30 30 30 31 30 29 30 31 31 32 32 32 32 31 29 28 27 26 26 25 24 23 23 22 21 20 20 19 18 16 15 14 13 12 11 11 10 9 8 7 6 4 3 2 2 2 2 2 1 1 0 0 1 1 2 4 5 6 6 6 6 4 4 5 6 6 5 4 2 1 1 2 3 3 2 2 2 1
21 21 23 26 27 28 29 29 30 30 30 30 30 30 29 29 30 31 32 32 31 30 29 28 28 28 28 27 27 27 26 25 24 22 21 19 17 15 14 13 13 12 12 11 10 9 8 7 5 4 2 1 2 1 1 1 1 1 1 0 1 2 3 5 6 7 7 7 5 4 4 5 6 5 4 3 2 1 1 3 4 4 3 3 3
22 22 22 23 26 28 29 29 30 30 29 29 29 29 28 28 28 30 31 31 31 31 30 30 29 28 28 29 29 27 27 26 24 22 21 19 17 15 14 14 14 13 12 12 11 10 8 7 6 5 4 3 3 1 1 2 2 1 1 1 1 2 4 5 7 8 8 7 7 5 4 4 5 5 5 4 3 1 1 2 3 4 5 4 4
24 24 24 24 26 28 29 30 29 28 27 28 29 29 29 28 28 28 29 30 30 31 31 31 30 29 28 28 28 26 25 23 21 20 20 19 18 17 16 15 14 14 13 12 11 10 9 8 7 6 6 5 4 3 3 3 2 2 2 1 1 2 4 5 7 8 8 8 8 6 5 4 5 5 5 5 4 3 2 2 2 4 6 5 5
26 26 25 25 24 24 25 27 27 26 27 28 29 29 29 28 28 28 28 28 29 30 31 31 30 28 27 27 27 27 24 22 21 20 20 21 20 19 18 16 16 15 14 13 12 11 10 9 8 8 7 6 5 4 4 3 3 3 3 2 1 1 3 5 6 7 8 8 8 7 6 5 6 6 6 5 5 4 4 3 2 2 4 4 5
28 28 26 25 23 22 21 22 25 27 28 28 28 29 29 29 29 29 29 28 28 29 31 31 29 27 26 26 27 26 24 23 23 23 22 22 22 21 19 18 17 16 15 14 12 12 11 10 9 9 9 8 7 6 5 4 4 4 4 3 2 0 1 3 4 6 7 7 8 7 7 6 6 5 5 5 5 5 5 5 3 3 4 4 4
28 30 29 27 23 21 20 20 22 25 27 28 29 30 31 31 30 30 30 29 28 28 29 30 29 28 27 27 27 26 25 24 25 25 25 24 24 22 21 20 18 17 15 14 13 12 11 11 10 10 10 9 8 7 6 5 5 5 5 5 3 2 1 2 3 4 5 6 7 7 7 7 7 6 5 5 5 5 6 5 4 4 4 5 5
30 32 32 30 27 23 22 22 22 22 24 27 29 31 31 32 31 31 31 30 29 28 29 30 30 29 28 27 26 25 25 25 26 26 25 25 24 23 22 21 20 18 16 15 14 13 12 11 10 10 11 11 9 8 8 7 7 6 6 5 5 4 2 1 1 2 3 4 5 6 6 6 7 6 6 5 6 6 6 6 5 5 5 5 6
31 32 33 32 31 27 24 24 24 23 24 27 28 30 32 32 31 32 32 32 31 29 29 30 30 30 28 27 26 26 26 26 26 26 25 25 24 23 23 22 21 19 17 16 14 13 12 11 11 10 11 11 11 10 9 9 8 7 6 6 6 6 4 3 2 1 1 2 4 4 5 5 5 5 5 5 5 5 6 6 6 6 5 6 7
32 33 34 34 32 28 25 25 26 26 26 26 27 28 31 31 31 31 32 32 32 31 30 30 31 30 28 27 26 26 26 26 26 26 25 25 25 24 24 23 21 19 17 15 14 14 13 12 11 10 11 12 12 12 11 11 10 9 8 7 8 8 7 6 4 3 1 1 2 3 3 4 4 4 5 4 4 5 5 6 6 6 6 6 7
33 34 34 33 31 29 27 26 26 27 27 26 27 27 29 31 31 31 31 32 32 32 31 30 31 30 29 27 27 26 26 25 25 25 25 25 26 25 24 23 22 20 18 17 16 16 14 14 13 12 12 13 13 13 13 13 12 10 10 9 9 9 9 8 6 5 3 2 1 1 2 3 3 4 4 4 4 5 5 5 6 6 6 6 6
34 35 35 33 31 30 29 27 26 27 27 27 28 28 29 30 30 30 31 32 33 33 32 31 30 30 30 28 27 27 26 25 25 25 25 26 26 26 25 24 23 21 20 19 18 17 16 15 15 14 14 14 14 15 15 15 14 12 12 11 11 11 10 10 8 7 5 4 3 1 1 1 2 3 3 3 4 5 5 5 6 5 5 6 7
35 36 36 33 32 32 31 29 28 27 27 29 30 30 30 30 30 30 30 31 32 33 32 31 30 30 30 29 28 27 26 25 25 25 25 26 26 26 26 25 24 23 22 21 19 18 16 16 16 16 15 15 15 16 16 16 15 14 14 13 13 13 12 11 11 9 8 6 5 4 3 2 1 1 1 2 2 4 5 5 5 5 5 6 6
36 35 36 34 33 33 32 30 29 28 28 28 30 31 31 30 30 30 30 31 32 32 32 31 30 30 31 30 29 28 27 26 25 25 25 25 26 26 26 26 25 24 22 21 20 19 18 16 16 17 17 17 17 17 17 17 16 16 15 14 14 14 13 13 12 11 10 8 6 6 5 4 4 3 2 1 2 3 3 4 4 4 5 5 5
35 34 35 35 34 33 32 30 30 29 28 27 28 30 31 31 30 30 30 31 31 31 31 31 31 30 30 31 30 29 27 26 25 25 25 26 26 26 27 26 25 24 23 22 21 21 19 18 17 17 18 18 17 18 17 17 17 17 17 16 16 16 15 13 13 13 12 11 8 7 7 7 6 6 4 2 2 1 2 1 2 3 3 3 3
36 35 36 37 36 34 33 32 31 30 29 27 27 28 30 31 31 31 30 30 31 31 31 31 31 31 30 30 30 29 28 27 26 26 27 27 26 26 26 26 26 25 24 24 23 22 21 19 17 17 17 18 17 17 16 16 16 17 18 17 17 17 16 14 14 14 14 13 11 9 9 9 9 8 7 5 3 3 3 2 2 0 0 1 1
36 34 35 38 37 35 34 33 32 30 29 28 27 28 30 31 31 31 30 31 32 32 32 32 32 31 31 31 31 31 30 28 28 28 28 27 27 26 26 26 26 26 26 26 25 24 22 20 18 17 17 17 17 17 16 15 16 16 17 18 18 18 17 15 15 15 15 14 13 12 11 11 10 10 9 8 7 6 6 6 5 4 3 3 4
34 32 33 36 36 35 35 35 35 33 31 30 28 27 28 30 32 31 31 32 33 33 33 33 32 32 32 31 31 31 30 29 29 29 28 28 27 27 27 27 27 27 26 26 25 24 22 20 19 18 18 17 16 16 16 16 16 16 16 17 18 19 17 16 15 15 14 14 14 13 13 13 12 11 11 11 10 10 9 9 8 7 7 7 8
31 30 29 31 33 33 35 37 38 36 33 30 29 27 28 30 31 32 31 31 32 33 34 34 33 33 32 31 31 31 31 31 31 30 29 29 28 28 27 28 28 27 26 26 25 24 22 21 19 18 18 17 16 17 18 18 17 16 16 16 17 17 17 16 15 15 14 14 14 14 13 14 14 13 13 13 12 12 12 12 11 11 10 10 11
26 27 26 26 28 31 34 37 38 37 33 30 29 28 28 29 31 32 32 30 29 30 32 33 33 33 32 32 31 31 32 32 32 31 30 29 29 28 28 28 27 27 26 25 24 24 23 22 21 19 18 17 17 17 19 19 17 17 16 16 16 16 15 14 14 14 14 14 14 13 13 14 16 15 15 15 14 14 14 14 14 14 14 13 14
24 26 25 23 26 30 34 36 37 37 35 32 30 29 28 29 31 32 31 29 27 27 29 32 33 33 32 32 32 32 32 32 32 32 31 30 29 29 29 28 28 27 27 25 24 24 24 23 22 20 18 17 17 18 19 19 18 17 17 16 15 14 13 13 13 13 13 14 13 12 12 14 16 16 15 15 15 15 16 16 16 16 16 16 18
24 26 26 26 28 30 31 33 34 35 35 34 31 29 29 30 31 32 31 29 27 26 27 29 31 32 33 33 33 32 32 32 32 32 31 30 30 29 29 28 28 27 26 26 25 25 25 24 23 20 18 17 17 19 20 19 19 18 17 16 15 14 12 12 11 11 11 11 11 10 10 12 14 14 13 14 15 15 17 17 17 18 18 19 20
28 28 28 28 30 29 29 31 31 31 33 34 33 30 29 30 31 31 29 28 28 28 27 27 28 30 33 33 33 33 32 32 32 31 31 31 30 29 28 28 27 27 27 27 26 26 25 25 23 21 19 18 18 20 21 20 20 19 18 17 15 14 13 12 11 10 10 8 7 7 7 8 9 9 9 10 12 14 15 16 17 18 19 21 22
33 31 30 29 30 30 30 31 29 28 30 33 34 31 29 30 30 29 28 28 29 29 29 28 28 28 30 32 33 33 32 31 31 31 31 31 30 29 28 27 27 27 27 27 27 26 25 24 23 22 21 19 19 21 22 22 21 20 19 18 16 14 13 12 12 11 10 9 7 7 7 8 7 7 8 9 11 13 14 15 16 16 18 20 21
38 35 33 29 29 30 29 30 28 26 28 33 34 32 30 30 30 29 28 28 28 28 29 29 29 28 28 29 30 31 32 31 31 31 31 30 30 29 28 27 27 28 27 27 26 26 25 24 24 24 23 22 22 23 23 23 22 21 20 18 16 15 14 13 12 12 11 10 10 9 9 9 10 10 11 12 14 15 16 17 17 18 19 21 22
43 40 36 30 28 28 27 28 26 25 27 33 35 33 31 30 31 32 31 29 27 27 27 28 28 28 26 25 26 28 30 31 31 31 31 30 30 29 28 28 28 27 27 27 26 25 25 25 24 24 24 25 24 24 24 23 22 21 20 19 17 16 15 14 13 13 12 12 11 11 11 12 13 13 14 15 16 17 19 19 19 21 23 24 25
47 43 39 33 28 27 27 27 25 23 27 33 34 33 32 31 31 32 31 30 28 27 26 26 26 26 24 24 24 25 27 29 31 31 30 30 30 29 29 28 27 27 26 26 26 25 25 25 24 25 25 26 26 25 24 23 23 22 21 20 19 18 17 16 15 14 14 13 13 13 14 14 15 16 17 18 19 20 21 22 22 23 25 26 28
49 46 43 37 31 29 29 28 24 21 25 31 33 32 31 30 31 30 30 30 29 28 26 25 25 24 24 24 23 23 25 27 29 29 29 29 29 29 29 28 27 27 26 26 26 25 24 24 24 24 25 26 26 25 24 25 24 24 23 23 22 20 19 19 18 17 16 16 16 16 17 17 18 18 19 19 20 20 21 21 22 24 26 26 27
47 49 46 41 35 31 29 26 22 21 25 30 33 33 31 29 29 29 29 29 29 29 28 26 25 24 25 25 24 23 24 26 27 28 28 28 28 29 29 28 28 27 26 26 26 25 24 24 24 24 24 25 25 25 25 25 25 25 25 24 23 22 22 21 20 19 19 19 19 19 19 19 19 19 19 19 19 18 18 19 20 22 24 24 25
43 49 47 41 35 30 27 25 23 24 27 29 31 31 29 27 28 28 28 28 29 29 29 27 26 26 25 24 24 23 23 24 25 26 27 27 28 28 28 28 27 27 27 27 27 26 25 24 23 23 23 24 24 24 24 24 25 25 25 25 24 24 24 23 22 22 21 20 20 20 19 19 18 18 18 18 17 17 17 19 21 22 24 25 26
34 43 45 40 34 29 26 25 25 26 28 29 30 29 27 26 27 27 27 28 29 29 30 29 28 27 26 25 23 22 21 21 22 24 25 27 27 27 27 27 27 27 28 28 27 27 26 26 25 24 23 23 23 22 23 23 23 24 24 25 25 25 25 24 23 22 21 20 19 20 19 18 18 19 19 19 19 20 20 22 23 25 26 28 29
28 35 41 40 33 28 28 28 28 28 28 29 29 29 27 27 25 24 25 27 28 28 29 28 29 29 28 28 26 25 23 22 21 22 23 24 25 26 26 26 26 27 27 27 27 27 27 27 27 26 25 24 22 21 22 22 22 22 24 25 26 26 25 24 23 22 20 19 19 20 20 19 19 20 20 21 22 23 25 25 25 26 28 29 30
27 30 34 35 31 28 29 30 30 29 28 28 28 28 27 25 22 21 22 24 25 25 25 26 28 30 30 30 29 28 26 24 24 23 23 23 23 23 23 24 25 25 26 25 26 26 26 26 26 26 25 23 21 21 21 21 21 22 23 25 25 25 25 24 22 21 21 20 20 21 21 20 20 21 22 23 25 27 28 27 26 27 29 31 31
29 30 30 31 30 30 31 31 30 29 28 28 28 27 26 23 21 21 22 22 22 22 23 25 26 28 29 30 29 29 28 27 26 26 25 24 23 23 22 23 23 23 23 23 24 24 24 24 24 25 24 22 20 21 21 21 21 22 23 24 25 24 24 24 23 23 22 22 22 22 22 22 22 23 24 26 28 29 29 28 27 28 30 31 31
30 31 32 32 32 32 31 30 28 28 28 28 29 28 25 23 22 22 23 23 23 22 23 23 23 24 26 27 27 27 28 28 28 27 26 26 25 24 23 23 23 22 22 22 22 22 23 23 23 23 22 21 21 21 22 22 22 22 23 25 25 25 26 26 25 25 24 24 24 24 24 25 25 26 27 29 30 31 30 29 28 28 30 31 29
30 32 34 34 33 32 30 27 27 28 29 29 29 27 25 23 23 24 24 24 22 21 20 20 21 22 24 24 25 25 26 26 27 26 26 26 25 25 24 24 23 23 23 22 22 22 22 22 22 22 22 22 22 22 23 23 23 23 25 26 27 28 28 28 27 27 26 26 27 27 27 28 28 29 30 31 32 32 32 31 29 29 30 31 30
30 33 35 34 33 32 29 27 27 29 29 30 29 27 25 24 25 26 26 24 22 20 20 19 20 21 22 23 24 25 24 25 25 24 24 24 24 25 25 25 25 24 24 24 23 23 23 22 22 22 22 23 23 23 23 23 24 25 26 28 29 30 30 29 29 29 29 29 29 29 30 30 31 32 32 33 33 34 33 33 31 30 31 32 32
32 34 34 33 32 31 28 27 29 30 30 30 29 26 25 26 27 28 27 24 22 20 19 19 19 20 22 23 24 25 25 24 24 24 23 23 24 25 25 26 26 26 27 26 25 25 24 24 23 23 23 23 24 24 24 24 25 27 28 29 31 31 31 31 31 31 31 31 31 32 32 32 33 33 34 34 35 35 35 35 32 30 31 32 32
32 33 32 31 31 31 29 28 30 32 31 30 28 27 27 28 28 28 26 23 21 19 17 17 17 18 20 22 23 24 25 25 24 24 25 25 24 25 25 26 27 28 29 30 29 29 28 27 26 25 24 24 25 25 26 26 27 28 30 31 32 32 32 33 33 33 33 33 34 34 34 34 34 34 34 35 36 36 36 36 33 31 31 32 33
30 30 29 28 30 30 29 29 32 32 31 29 28 28 28 27 26 25 23 21 19 18 17 16 15 15 17 18 19 20 21 22 23 23 24 24 24 24 25 26 27 28 29 30 31 32 32 31 31 30 28 27 27 27 28 28 30 31 31 32 33 33 34 35 35 34 34 35 35 36 36 36 36 36 36 36 37 37 36 35 33 31 31 32 33
27 27 25 26 27 28 29 30 32 32 30 28 27 27 26 25 24 23 21 20 19 18 16 15 14 15 15 15 16 16 16 17 18 19 20 22 23 24 25 25 26 27 27 29 30 31 32 33 34 34 33 32 31 31 31 31 32 33 34 34 34 35 35 36 36 36 36 37 37 37 37 37 37 37 37 37 37 37 36 36 35 34 33 31 29
25 24 24 24 24 25 27 30 32 32 30 28 27 27 25 24 23 22 20 19 18 16 15 15 15 15 14 13 14 14 14 15 15 16 16 18 19 21 23 24 25 26 27 27 28 28 30 31 33 34 35 35 35 35 35 35 36 37 37 37 36 36 37 38 37 38 39 39 39 39 39 39 39 38 37 37 37 37 37 37 37 35 33 29 25
25 25 24 24 24 25 26 29 31 31 30 29 28 28 27 25 24 23 21 19 18 17 16 16 16 14 12 12 13 13 14 15 16 17 16 16 17 17 18 20 22 23 25 27 27 28 28 29 30 31 32 34 35 37 38 38 39 39 39 39 39 39 40 40 40 40 40 40 40 39 39 38 38 37 37 36 36 36 37 37 36 33 29 26 24
27 27 27 26 26 26 26 27 29 29 28 28 29 28 27 25 24 24 23 21 20 18 17 17 17 17 15 13 13 14 14 14 16 17 17 17 16 16 16 17 17 18 20 23 26 28 29 29 29 29 30 31 33 35 37 39 40 40 41 41 41 41 41 41 40 40 40 39 38 38 37 37 36 36 36 36 36 36 36 34 31 28 26 25 25
30 29 29 29 28 28 28 28 28 29 28 28 28 28 27 26 25 23 22 20 18 17 16 16 16 18 18 18 18 18 18 16 16 16 17 17 17 16 16 16 16 16 17 18 21 24 26 29 30 31 31 31 32 33 34 36 37 38 38 39 39 39 38 38 38 37 37 36 36 36 35 34 34 34 33 33 34 33 31 28 26 25 25 26 27
32 32 32 32 31 31 31 30 29 30 29 29 29 28 27 26 25 22 21 20 19 18 18 18 18 19 20 21 22 22 22 21 19 18 17 17 17 17 16 16 17 17 17 18 19 20 22 25 27 29 30 31 32 32 33 34 34 35 35 36 36 36 36 36 36 35 35 34 33 32 30 30 30 31 32 32 31 28 25 24 24 25 26 27 28
31 31 31 32 33 32 31 31 30 30 30 30 29 28 27 25 24 23 22 22 22 21 22 22 22 23 24 24 25 24 23 23 23 21 20 19 19 19 18 18 19 19 19 20 20 20 21 22 23 24 26 28 29 30 32 33 33 34 35 35 35 35 35 35 35 35 34 34 32 30 29 29 31 32 32 30 27 24 22 23 25 26 28 29 30
29 29 29 29 30 30 30 30 30 30 30 30 29 29 27 26 25 25 25 25 24 24 24 25 26 26 26 27 27 26 25 24 24 23 23 22 22 22 22 22 22 22 22 22 22 22 22 23 23 23 23 24 25 26 28 28 29 30 31 31 31 31 31 32 33 33 31 30 30 30 30 30 29 28 27 25 22 22 22 24 26 27 29 30 30
Wind_Direction
211 207 205 204 203 201 202 203 202 201 201 201 202 203 203 203 203 202 202 201 201 201 200 202 203 203 203 204 204 207 210 208 205 204 199 200 207 212 211 209 212 213 210 217 220 215 207 201 226 339 360 1 8 3 360 17 19 36 43 40 36 30 28 35 50 62 66 64 69 106 151 158 152 155 163 173 162 130 135 127 98 79 90 122 151
213 209 205 205 204 202 203 204 204 202 201 202 202 203 204 204 204 203 203 203 203 203 203 203 204 204 206 206 205 209 214 213 210 210 209 210 211 211 212 210 209 212 213 215 215 210 205 209 225 294 347 346 354 342 331 359 29 38 35 37 37 30 32 42 54 65 72 72 77 99 122 134 139 149 158 170 176 122 165 149 99 79 73 85 99
215 209 206 206 204 203 204 204 205 203 202 204 203 204 205 205 204 203 204 204 204 204 204 204 204 205 206 206 206 209 214 214 212 211 212 214 215 212 211 211 208 211 215 214 210 206 205 210 220 251 320 332 346 340 334 353 30 27 22 24 25 30 44 56 66 70 71 71 75 96 111 121 127 132 143 156 131 48 328 321 65 76 58 40 49
217 210 207 207 204 204 206 205 204 204 203 203 204 205 206 205 204 204 205 205 204 205 205 204 205 206 207 207 208 209 211 212 211 211 211 212 216 214 210 211 211 212 215 213 207 205 206 208 214 233 272 318 341 337 330 343 25 35 350 13 13 23 45 63 76 79 80 80 76 90 107 114 114 112 110 106 83 54 347 331 345 10 15 356 337
221 215 210 209 209 208 208 207 206 205 204 204 204 206 207 206 204 205 206 205 205 205 205 206 206 206 207 207 208 209 209 210 208 209 211 212 214 215 211 210 213 215 215 213 210 208 208 207 209 220 236 270 295 303 324 315 287 210 229 314 16 34 48 65 80 84 87 89 89 90 98 106 108 106 100 90 81 63 2 329 332 335 333 324 308
224 223 220 215 213 211 209 209 209 209 208 206 206 206 207 207 206 206 207 206 207 206 206 208 208 208 207 208 210 211 212 212 209 208 210 213 214 215 214 210 211 216 216 213 214 214 213 211 209 214 220 231 252 256 240 252 245 237 254 296 2 35 50 66 77 80 81 85 89 88 83 90 97 103 101 92 83 58 9 336 328 319 317 321 315
223 222 222 220 216 213 211 212 213 215 212 208 208 208 207 207 207 207 207 207 208 208 208 208 209 210 209 209 211 214 216 217 215 211 210 211 213 215 214 211 211 214 215 214 217 219 218 216 215 216 220 225 235 238 228 226 230 240 251 273 345 25 48 63 72 74 74 74 78 81 78 72 75 85 93 91 83 63 35 16 336 306 310 320 318
224 220 219 219 219 217 216 215 216 217 214 210 211 210 208 207 207 208 208 207 208 210 210 210 210 211 210 210 211 214 216 216 217 215 213 211 211 213 213 212 212 213 214 214 217 221 221 220 221 221 223 228 234 237 230 222 220 226 236 246 265 38 55 64 69 72 73 71 71 75 78 74 70 73 77 81 79 68 59 56 32 324 325 332 325
227 223 221 220 220 220 218 217 216 214 213 213 213 212 211 210 209 209 209 208 208 210 211 210 210 211 210 210 211 212 213 213 214 215 212 211 211 213 214 214 214 213 214 214 217 223 225 224 226 226 227 228 233 238 232 225 220 219 227 234 238 348 62 70 70 70 72 73 70 67 68 69 67 66 68 70 69 64 64 71 64 23 9 5 352
229 224 224 225 224 224 221 217 215 213 213 214 214 211 212 212 211 211 210 209 208 209 211 210 209 210 209 209 209 209 210 211 212 213 211 209 209 211 215 217 216 215 215 217 220 224 230 233 233 231 229 227 230 236 234 229 226 224 227 227 230 235 191 95 75 70 69 68 69 67 64 62 61 62 64 62 59 58 58 66 65 38 24 18 7
228 222 222 224 226 227 225 221 218 214 212 212 212 211 211 212 212 212 211 211 210 209 211 210 209 210 210 209 207 206 208 211 212 213 211 210 209 211 215 218 219 218 218 220 222 225 231 237 240 237 231 226 226 232 235 234 230 228 230 230 231 232 223 181 127 88 75 67 67 68 63 60 62 65 67 63 59 59 59 60 57 40 25 18 9
227 221 220 222 224 225 224 221 219 216 213 211 211 210 210 211 212 211 212 212 212 210 210 211 211 211 211 210 207 205 207 210 212 213 212 211 210 212 215 219 221 222 222 222 224 227 233 238 242 242 236 228 225 228 234 235 232 229 229 232 232 231 230 222 206 168 107 77 67 65 61 58 62 67 75 78 68 61 60 60 57 49 35 24 17
226 221 220 220 219 218 218 218 217 215 214 212 212 212 211 211 211 210 210 211 213 212 210 211 211 211 211 211 208 206 207 209 210 212 212 211 211 213 215 219 223 226 226 225 226 230 234 239 241 242 238 231 226 227 231 234 234 230 227 230 231 230 228 228 223 210 181 109 75 66 59 52 54 60 68 80 78 64 55 53 55 54 47 37 28
224 220 219 217 213 213 214 216 216 216 215 214 213 214 213 213 212 210 208 209 212 213 212 212 211 210 211 211 210 208 207 208 209 210 210 210 211 212 215 218 222 226 228 229 231 234 235 238 239 238 237 233 227 226 229 232 234 231 229 229 231 230 227 228 231 228 216 190 155 84 60 49 47 51 53 59 65 59 48 46 50 50 49 45 36
223 221 219 216 211 211 213 213 215 216 217 215 214 214 215 215 215 212 209 208 210 213 213 213 212 211 210 211 211 209 208 207 209 210 209 209 210 212 214 217 220 224 228 230 234 236 235 235 235 234 234 233 229 226 228 231 233 232 229 229 230 230 227 226 230 232 228 212 192 175 119 71 52 53 53 51 55 58 51 46 49 51 50 47 43
224 221 219 217 213 213 214 213 214 215 216 216 214 213 214 215 216 215 212 210 210 212 213 213 213 212 212 212 212 211 209 207 207 209 209 209 209 211 213 215 218 221 224 228 231 234 233 231 231 230 231 232 230 229 229 230 233 231 228 227 228 229 225 223 226 228 229 221 202 195 203 203 181 95 74 68 66 66 62 55 54 59 59 53 49
226 222 219 218 215 214 214 213 213 214 215 217 215 214 214 215 216 216 214 213 212 212 213 213 213 213 213 213 213 212 210 207 207 209 210 211 210 210 212 213 215 218 221 224 227 230 231 229 228 227 228 230 230 231 231 232 233 230 227 225 227 228 224 221 223 224 228 227 212 203 211 220 222 222 217 154 110 87 79 70 64 69 72 69 61
227 223 220 219 217 217 216 213 213 215 217 218 218 216 216 217 217 217 216 215 214 213 213 213 214 214 214 214 215 214 212 208 206 207 210 212 211 211 211 212 214 216 219 222 225 228 230 229 226 226 229 230 231 231 232 233 231 228 226 225 225 227 225 223 224 222 225 228 223 216 217 224 228 232 236 218 170 147 127 105 83 81 80 80 75
231 227 225 223 220 219 220 217 215 216 218 219 220 220 219 218 218 217 217 216 216 215 214 213 214 215 215 214 215 215 214 210 208 208 210 212 213 213 213 212 214 217 219 222 226 230 232 231 228 226 230 232 232 231 230 229 228 224 224 224 225 227 226 225 226 223 223 225 226 225 224 228 231 233 237 237 229 225 224 228 234 215 50 21 22
233 230 228 226 223 222 223 222 219 218 219 219 220 221 220 219 218 217 216 216 215 215 214 214 214 215 216 215 215 215 214 213 211 211 212 213 214 216 216 215 216 218 220 223 226 229 232 233 230 227 231 233 232 230 227 226 223 221 222 224 226 228 227 225 227 228 225 224 224 226 228 232 234 234 237 239 239 241 244 247 251 257 269 284 292
235 233 230 227 226 226 226 225 222 220 221 221 221 222 222 220 218 216 216 216 216 215 214 213 213 215 216 216 215 215 215 215 215 214 214 214 215 217 218 219 219 220 221 223 225 227 230 233 232 229 230 233 231 226 224 222 219 217 219 222 226 230 229 226 228 230 230 229 227 226 229 234 237 237 238 241 242 245 248 251 255 257 262 271 276
237 237 235 231 228 227 228 229 224 221 221 222 222 223 223 221 218 215 215 218 219 218 215 214 213 214 215 216 217 216 216 217 217 218 216 216 217 218 219 222 223 223 223 224 225 226 228 231 232 230 229 231 228 222 220 219 216 214 216 219 223 227 229 228 228 230 232 233 232 230 232 236 239 239 238 240 241 244 247 250 254 257 259 264 270
237 235 238 236 232 231 232 233 229 224 221 221 223 223 223 222 218 215 215 217 220 220 218 216 214 215 215 216 217 218 218 218 219 220 219 218 218 219 221 223 225 226 226 226 226 226 228 230 232 230 227 227 225 219 217 216 213 212 214 217 220 223 225 226 227 230 233 235 235 234 235 238 242 243 243 243 244 246 249 251 254 256 258 260 265
236 231 232 229 228 234 236 236 234 229 223 222 223 223 223 223 219 216 214 215 218 220 220 218 216 216 216 217 218 219 219 220 220 221 222 221 220 220 222 225 226 227 228 227 227 226 228 230 232 231 226 224 222 216 213 212 209 207 207 210 214 217 218 220 222 227 232 237 239 238 239 242 245 247 249 252 254 256 258 259 259 262 264 266 267
237 231 226 220 223 231 235 235 235 232 227 224 223 222 222 221 219 216 214 213 215 217 219 220 218 217 217 218 219 220 221 222 222 223 223 222 222 222 223 225 227 228 228 228 228 227 228 230 232 232 228 224 220 214 209 205 200 197 197 199 202 204 205 208 211 217 226 234 239 240 241 245 250 255 258 261 263 263 263 264 264 267 269 271 272
235 230 222 217 221 226 228 230 232 232 230 226 223 220 219 218 216 215 214 214 215 214 216 218 219 219 219 220 221 221 223 224 224 225 224 223 224 223 224 226 227 228 228 227 228 227 228 229 231 232 229 223 218 212 206 199 195 193 193 194 197 198 200 203 204 208 215 222 225 227 236 246 256 263 264 264 264 264 264 264 265 267 268 269 270
232 227 219 216 220 222 225 229 231 230 228 226 223 219 217 215 211 209 209 211 214 215 216 217 219 222 222 222 223 224 225 226 227 227 226 225 225 224 224 225 226 227 227 227 227 227 227 227 229 230 229 224 219 212 205 199 197 196 195 195 199 201 203 204 205 208 214 220 223 227 237 249 260 265 265 264 266 267 267 267 268 269 269 270 271
228 223 217 218 219 220 225 228 229 229 224 221 220 217 216 213 207 203 202 205 209 212 214 216 219 222 224 225 225 226 227 228 229 229 229 228 226 225 224 225 226 227 227 227 227 226 225 225 225 227 227 225 221 215 208 203 201 200 199 200 203 207 209 210 213 216 220 225 230 236 244 252 259 263 264 265 266 268 269 270 271 272 272 273 274
225 220 215 217 220 221 222 221 223 227 221 217 216 215 215 211 206 204 203 203 206 209 212 215 218 221 223 225 226 227 228 229 230 230 231 230 228 226 225 225 226 228 228 228 227 225 223 223 223 224 225 225 224 219 214 209 206 205 206 207 211 214 218 220 223 226 228 231 237 244 252 257 261 264 264 264 264 265 267 268 268 269 270 271 272
220 216 212 214 218 222 222 220 223 226 220 215 214 214 213 210 207 207 206 205 207 210 213 216 218 220 222 225 227 227 228 229 230 231 232 232 231 229 227 226 228 230 230 230 229 226 224 223 222 222 223 225 226 223 220 217 214 213 214 216 219 222 226 229 232 235 236 241 248 254 259 264 266 267 266 265 264 264 265 266 266 266 268 270 271
213 212 212 214 217 220 221 221 224 222 217 214 212 213 213 210 210 210 209 208 208 211 214 217 219 220 221 224 226 227 226 226 228 230 232 232 232 230 229 228 229 231 232 232 231 230 228 225 224 223 224 226 227 225 224 223 221 220 221 222 224 227 230 233 236 239 242 247 253 257 262 267 270 270 268 266 264 265 267 269 269 269 270 273 275
208 209 213 215 216 217 217 216 216 211 210 211 211 211 212 211 211 211 210 210 210 210 213 216 217 218 219 222 225 225 224 223 224 227 229 230 231 231 230 229 230 231 232 233 233 233 231 229 228 227 226 227 227 226 226 226 225 225 226 227 229 230 233 236 238 240 243 247 252 257 262 267 270 270 267 265 265 265 268 271 273 273 273 276 279
206 209 214 214 213 212 210 209 209 206 206 208 208 210 212 210 210 210 209 210 210 210 212 213 214 215 218 220 221 221 221 219 221 223 226 228 229 230 230 229 230 231 232 234 235 235 234 233 232 231 229 229 228 226 226 226 227 228 229 232 234 235 236 238 239 241 244 248 253 258 262 265 266 265 264 264 264 265 268 273 275 276 277 279 281
200 206 209 208 207 205 202 202 205 204 203 204 205 209 210 210 210 209 208 209 209 210 211 211 211 213 216 217 217 218 217 217 218 220 222 225 228 229 230 230 230 231 231 232 233 234 235 235 235 234 233 232 231 228 227 227 227 228 230 233 236 238 239 240 241 243 246 251 257 260 262 261 260 260 260 261 263 265 270 274 277 278 280 280 280
190 194 197 198 199 199 197 198 201 200 200 201 203 206 208 209 209 207 206 208 209 210 210 209 209 212 215 217 219 220 219 218 218 219 220 223 226 227 229 230 231 232 232 232 233 234 234 235 235 236 235 233 231 229 229 229 229 230 232 234 237 239 241 243 245 248 252 256 259 260 259 257 256 258 260 262 265 268 272 276 279 279 280 279 279
187 188 191 194 197 196 194 196 199 198 197 198 199 202 204 204 202 200 201 204 206 208 208 208 209 212 215 218 221 222 223 222 221 221 222 223 224 225 226 228 230 231 232 232 232 232 233 233 234 235 235 233 230 229 229 228 228 230 232 235 238 240 243 246 249 252 257 258 258 258 259 259 260 262 265 268 271 273 275 277 279 279 279 278 278
190 190 192 194 195 192 190 193 197 196 195 195 195 196 197 196 195 194 195 198 200 201 203 206 208 211 215 218 220 222 224 225 225 226 227 227 227 227 227 229 231 232 232 232 233 233 234 234 234 235 235 233 230 229 229 228 228 230 233 235 239 241 244 247 249 252 255 256 256 259 262 264 266 269 272 275 276 278 278 279 281 281 279 278 278
195 194 193 192 190 188 188 190 193 192 192 192 192 192 192 191 192 191 191 194 196 196 200 203 204 207 212 214 217 220 221 223 226 228 229 230 231 231 230 231 232 233 234 234 235 236 235 234 233 234 234 234 231 230 230 229 229 230 233 236 239 241 243 245 248 250 252 254 256 259 262 266 271 274 277 279 280 281 281 282 284 284 283 283 284
197 193 192 191 188 187 187 188 189 190 190 190 190 190 192 192 193 194 195 197 197 194 195 196 196 201 206 209 213 216 218 220 224 226 229 231 232 233 233 233 234 235 235 235 236 236 235 234 233 233 232 231 231 231 231 231 231 232 233 235 237 239 241 244 247 249 251 253 256 260 263 268 273 278 281 282 283 283 284 285 286 287 287 289 290
196 192 192 192 189 187 187 186 187 189 189 189 190 192 195 195 196 199 201 202 200 197 194 193 194 198 203 207 211 213 215 218 221 223 226 229 232 233 234 235 236 237 237 237 237 237 237 236 234 233 232 230 230 231 231 230 230 231 232 234 237 239 242 245 248 250 252 254 257 261 265 270 275 279 282 283 284 284 285 285 285 286 288 289 290
196 195 196 195 191 189 187 184 186 188 188 189 192 194 196 198 200 204 206 206 205 204 202 202 203 204 207 209 211 212 213 215 217 219 222 226 229 231 234 235 236 238 239 240 240 240 240 240 238 235 233 231 231 231 231 230 229 230 232 234 238 241 244 246 249 252 255 257 260 263 267 271 275 278 281 282 283 283 283 282 282 283 286 288 288
199 200 202 199 194 192 190 184 184 186 187 189 192 195 198 201 205 208 210 212 212 214 215 215 215 214 213 213 213 212 212 212 214 217 220 222 224 227 230 233 234 236 239 241 242 242 242 243 242 240 237 235 233 233 233 232 231 232 234 236 240 243 246 248 252 255 258 261 263 266 269 273 276 278 280 281 281 280 280 279 280 282 286 289 290
203 204 205 201 197 195 192 185 184 186 187 188 192 197 200 205 210 213 215 218 222 225 227 227 224 220 214 212 213 212 212 213 216 219 222 223 223 226 229 231 233 236 238 240 241 242 242 243 244 244 242 240 238 237 237 237 237 237 237 240 243 245 248 251 254 257 260 262 265 268 271 275 277 279 279 279 279 278 279 281 283 284 288 290 291
203 204 202 199 197 195 192 186 184 186 188 191 195 201 205 210 215 218 222 226 229 230 229 224 216 208 201 201 204 207 209 210 214 219 224 225 226 229 232 235 237 240 241 242 242 243 243 243 243 243 244 244 243 242 241 241 242 242 242 244 246 248 250 253 256 258 261 263 266 269 273 275 277 277 277 277 278 279 282 286 288 289 290 290 288
196 196 194 192 191 191 189 186 186 190 194 197 201 206 210 214 217 220 225 229 229 226 219 210 203 199 198 200 204 207 210 212 213 217 221 224 227 230 233 237 240 244 246 246 246 247 248 247 244 243 243 243 244 245 244 244 245 246 247 247 248 250 252 254 256 258 261 264 267 269 272 274 274 275 276 277 278 281 284 288 290 291 290 289 285
185 185 184 184 183 185 186 187 190 195 199 202 206 210 214 217 220 223 226 230 233 231 225 217 212 210 211 214 216 218 221 222 223 224 224 225 228 231 233 237 241 245 248 248 248 249 251 252 251 249 247 245 245 245 245 245 246 246 248 249 249 251 253 255 257 260 263 265 267 268 270 271 272 273 275 276 279 282 286 288 289 289 288 287 287
176 177 177 177 178 181 184 187 192 197 200 204 208 212 215 218 222 224 225 228 232 232 231 232 231 230 231 236 238 238 238 235 232 230 230 229 229 230 233 238 242 246 249 251 250 250 251 252 252 252 252 252 250 248 247 246 246 247 248 250 252 254 256 258 260 262 264 265 266 266 268 269 271 273 275 278 280 283 285 286 285 285 286 288 291
170 171 172 173 173 175 178 182 187 192 197 201 205 208 212 216 219 220 220 223 227 229 232 240 244 242 242 249 255 258 258 256 249 241 237 235 234 234 236 240 246 250 253 254 254 253 253 253 252 252 253 255 256 256 255 254 254 254 255 256 258 259 260 261 263 263 264 265 266 268 270 271 274 276 277 279 282 283 283 282 282 284 287 290 292
165 167 168 169 170 171 175 179 184 188 192 196 200 204 209 213 216 217 218 221 227 230 233 238 244 245 247 253 259 261 262 263 262 257 251 247 245 244 244 245 248 252 255 257 257 256 256 256 256 257 258 258 259 259 259 259 260 261 262 263 263 263 264 264 265 266 267 268 269 271 272 273 274 275 277 280 282 282 281 281 283 286 289 291 293
161 164 167 169 171 173 176 180 184 188 191 195 199 204 207 211 214 217 220 224 228 233 237 240 244 248 252 255 259 261 260 259 259 259 259 258 257 256 254 253 254 256 257 259 259 259 258 258 258 258 259 259 259 258 258 258 260 261 263 264 265 266 267 267 268 269 269 271 272 271 270 268 269 272 275 278 279 278 278 281 284 287 289 291 293
160 162 165 169 172 174 177 181 185 190 194 197 201 204 207 212 216 220 225 230 234 240 245 248 250 252 254 255 257 259 260 257 255 255 257 258 260 261 260 259 259 260 260 262 262 262 261 260 259 257 257 257 257 257 257 258 259 260 262 264 266 267 268 269 269 270 270 272 273 272 269 268 270 272 274 274 273 274 277 281 284 286 288 291 293
Height
3167 3168 3169 3171 3173 3176 3178 3180 3182 3184 3186 3187 3189 3191 3193 3195 3197 3200 3202 3204 3205 3207 3209 3210 3212 3214 3216 3218 3220 3222 3223 3225 3226 3228 3228 3230 3231 3232 3233 3234 3234 3235 3236 3237 3238 3238 3239 3239 3239 3239 3239 3240 3240 3240 3240 3240 3240 3240 3241 3241 3241 3241 3240 3240 3240 3240 3240 3240 3240 3241 3241 3241 3241 3242 3242 3242 3242 3242 3241 3241 3240 3240 3240 3240 3239
3165 3165 3167 3169 3171 3173 3176 3178 3180 3181 3183 3185 3187 3189 3192 3194 3196 3198 3200 3202 3204 3206 3208 3210 3212 3214 3216 3218 3220 3222 3223 3224 3226 3227 3228 3229 3230 3232 3232 3233 3234 3235 3236 3237 3238 3238 3238 3239 3239 3239 3239 3239 3240 3240 3240 3240 3240 3240 3240 3241 3241 3241 3241 3241 3241 3241 3241 3241 3241 3241 3241 3242 3242 3242 3242 3242 3242 3242 3242 3242 3241 3241 3240 3240 3240
3162 3164 3165 3167 3169 3171 3173 3175 3177 3179 3182 3184 3186 3188 3189 3191 3194 3196 3198 3200 3202 3205 3206 3209 3211 3213 3215 3217 3219 3221 3222 3224 3225 3226 3227 3228 3230 3231 3232 3233 3234 3235 3236 3237 3237 3238 3238 3239 3239 3239 3239 3240 3240 3240 3240 3240 3240 3240 3241 3241 3241 3241 3242 3242 3242 3242 3242 3242 3242 3242 3242 3242 3243 3243 3243 3243 3243 3243 3242 3242 3242 3241 3241 3241 3241
3161 3162 3163 3165 3167 3169 3170 3173 3175 3177 3179 3182 3184 3185 3187 3189 3192 3194 3196 3198 3201 3203 3205 3208 3210 3212 3214 3216 3217 3219 3220 3222 3223 3224 3225 3227 3229 3230 3232 3233 3234 3235 3236 3236 3237 3238 3238 3239 3239 3239 3240 3240 3240 3241 3240 3240 3241 3241 3241 3242 3242 3242 3242 3242 3242 3242 3242 3242 3242 3243 3243 3243 3243 3243 3243 3243 3243 3243 3243 3243 3242 3242 3242 3242 3241
3159 3161 3162 3163 3164 3166 3168 3171 3173 3175 3177 3179 3181 3183 3185 3188 3190 3192 3195 3197 3199 3201 3204 3206 3208 3209 3211 3213 3214 3215 3217 3219 3220 3222 3224 3226 3228 3230 3232 3232 3233 3234 3235 3236 3237 3237 3238 3238 3239 3239 3240 3240 3241 3241 3241 3241 3241 3241 3242 3242 3242 3243 3242 3242 3242 3242 3242 3242 3243 3243 3243 3243 3243 3243 3243 3243 3243 3243 3243 3243 3243 3243 3242 3242 3242
3158 3160 3161 3162 3163 3165 3167 3169 3171 3173 3175 3178 3180 3182 3185 3187 3189 3191 3193 3195 3198 3200 3202 3204 3205 3207 3209 3210 3212 3214 3216 3217 3220 3222 3224 3227 3228 3230 3231 3232 3233 3234 3235 3236 3236 3237 3238 3238 3239 3240 3240 3241 3241 3241 3241 3241 3242 3242 3242 3243 3243 3243 3243 3242 3242 3242 3242 3242 3243 3243 3243 3243 3243 3243 3243 3243 3243 3243 3243 3243 3243 3243 3242 3242 3242
3156 3158 3159 3160 3162 3163 3165 3167 3169 3171 3174 3177 3179 3181 3183 3186 3188 3190 3192 3194 3196 3198 3200 3201 3203 3205 3207 3209 3211 3213 3216 3218 3221 3223 3225 3226 3228 3229 3230 3231 3232 3233 3234 3235 3236 3237 3237 3238 3239 3240 3240 3241 3241 3242 3242 3242 3242 3242 3243 3243 3243 3243 3243 3243 3242 3242 3242 3243 3243 3243 3243 3244 3244 3244 3244 3243 3244 3244 3243 3243 3243 3242 3242 3242 3242
3154 3155 3157 3158 3160 3161 3163 3165 3167 3170 3173 3175 3177 3179 3182 3184 3186 3188 3190 3192 3194 3196 3198 3200 3201 3203 3206 3208 3210 3212 3215 3218 3220 3222 3224 3225 3226 3227 3228 3230 3231 3232 3233 3234 3235 3236 3237 3238 3239 3240 3240 3241 3241 3242 3242 3242 3242 3243 3243 3243 3243 3243 3243 3243 3243 3243 3243 3243 3243 3244 3244 3244 3244 3244 3244 3244 3244 3244 3243 3243 3243 3242 3242 3242 3242
3152 3154 3155 3157 3158 3160 3162 3165 3167 3169 3171 3173 3175 3178 3180 3182 3184 3186 3188 3190 3192 3194 3196 3198 3200 3202 3204 3206 3208 3210 3213 3216 3218 3220 3221 3223 3224 3226 3227 3228 3230 3231 3233 3234 3235 3236 3237 3238 3239 3239 3240 3241 3241 3241 3242 3242 3242 3243 3243 3243 3243 3243 3243 3243 3244 3244 3244 3244 3244 3244 3244 3244 3244 3244 3244 3244 3244 3244 3243 3243 3243 3242 3242 3242 3242
3150 3152 3153 3155 3157 3159 3162 3164 3166 3168 3170 3172 3174 3176 3178 3180 3182 3184 3186 3188 3190 3193 3195 3197 3199 3200 3202 3204 3206 3209 3211 3214 3216 3217 3219 3221 3222 3224 3226 3227 3229 3230 3232 3233 3234 3235 3236 3237 3238 3239 3240 3240 3241 3241 3242 3242 3242 3242 3243 3243 3243 3243 3243 3244 3244 3244 3244 3244 3245 3244 3244 3244 3244 3244 3244 3244 3244 3244 3244 3243 3243 3243 3242 3242 3242
3147 3149 3151 3153 3156 3158 3160 3162 3164 3166 3168 3170 3172 3174 3176 3178 3180 3182 3184 3186 3188 3191 3193 3195 3197 3198 3200 3202 3205 3207 3209 3211 3213 3215 3217 3219 3221 3223 3224 3226 3228 3230 3231 3232 3234 3235 3236 3237 3238 3238 3239 3240 3241 3241 3241 3242 3242 3242 3242 3243 3243 3243 3244 3244 3244 3245 3245 3245 3245 3245 3245 3245 3245 3245 3245 3245 3245 3245 3244 3244 3244 3243 3243 3243 3243
3145 3147 3148 3151 3153 3155 3157 3159 3161 3163 3165 3167 3169 3172 3174 3176 3178 3180 3182 3184 3186 3188 3191 3193 3195 3197 3199 3201 3203 3205 3207 3209 3211 3214 3216 3218 3220 3222 3223 3225 3227 3228 3230 3231 3233 3234 3235 3236 3237 3238 3238 3239 3240 3241 3241 3241 3242 3242 3242 3243 3243 3244 3244 3244 3245 3245 3246 3246 3246 3246 3246 3246 3246 3246 3246 3245 3245 3245 3245 3245 3245 3244 3244 3244 3243
3142 3144 3146 3148 3150 3152 3154 3155 3158 3160 3161 3164 3167 3169 3172 3174 3176 3178 3180 3182 3184 3186 3188 3191 3193 3195 3198 3200 3202 3203 3205 3207 3209 3212 3214 3217 3219 3220 3222 3224 3226 3227 3229 3231 3232 3233 3234 3235 3236 3237 3238 3238 3239 3240 3240 3241 3241 3242 3242 3242 3243 3243 3244 3245 3245 3245 3246 3246 3246 3246 3246 3247 3246 3246 3246 3246 3246 3246 3245 3245 3245 3245 3245 3244 3244
3139 3142 3143 3145 3147 3149 3151 3153 3155 3157 3159 3162 3165 3167 3169 3171 3173 3175 3178 3180 3182 3184 3187 3189 3191 3194 3196 3198 3200 3201 3203 3205 3208 3210 3212 3215 3217 3219 3221 3223 3224 3226 3228 3230 3231 3232 3233 3234 3235 3236 3236 3237 3238 3239 3239 3240 3241 3241 3242 3242 3243 3243 3244 3245 3245 3246 3246 3246 3246 3247 3247 3247 3247 3247 3246 3246 3246 3246 3246 3246 3245 3245 3245 3245 3245
3136 3138 3141 3143 3145 3147 3149 3151 3153 3155 3158 3160 3162 3165 3167 3169 3171 3173 3176 3178 3180 3182 3184 3187 3190 3192 3195 3196 3198 3200 3201 3204 3206 3209 3211 3213 3215 3217 3219 3221 3223 3225 3227 3228 3229 3230 3231 3232 3233 3234 3235 3236 3237 3237 3238 3239 3240 3241 3241 3242 3242 3243 3244 3244 3245 3245 3246 3246 3246 3247 3247 3247 3247 3247 3247 3246 3246 3246 3246 3246 3246 3246 3246 3245 3245
3133 3135 3138 3140 3142 3145 3146 3149 3151 3153 3155 3157 3160 3162 3164 3167 3169 3171 3174 3176 3178 3180 3182 3185 3188 3191 3193 3195 3197 3198 3200 3202 3204 3207 3209 3211 3213 3215 3217 3219 3221 3223 3225 3226 3227 3228 3229 3230 3231 3232 3233 3234 3235 3236 3237 3238 3239 3240 3241 3241 3242 3242 3243 3244 3244 3245 3246 3246 3247 3247 3247 3247 3247 3247 3247 3247 3247 3247 3246 3246 3246 3246 3246 3246 3245
3129 3132 3135 3137 3140 3142 3144 3147 3149 3151 3153 3154 3157 3159 3162 3165 3167 3170 3172 3174 3176 3178 3181 3183 3186 3188 3191 3193 3195 3196 3198 3200 3203 3205 3208 3210 3212 3214 3215 3217 3219 3221 3223 3224 3226 3227 3228 3228 3229 3231 3231 3233 3233 3234 3235 3236 3238 3239 3240 3241 3241 3242 3242 3243 3244 3244 3245 3246 3246 3247 3247 3248 3248 3247 3247 3247 3247 3247 3247 3247 3247 3247 3246 3246 3246
3125 3129 3133 3135 3137 3139 3141 3144 3146 3148 3150 3152 3155 3158 3161 3163 3166 3168 3170 3172 3174 3177 3179 3182 3184 3186 3189 3191 3193 3195 3197 3199 3201 3204 3205 3207 3210 3212 3214 3216 3218 3220 3221 3223 3224 3225 3226 3227 3228 3229 3230 3231 3232 3233 3234 3235 3236 3237 3239 3240 3240 3241 3242 3242 3243 3244 3245 3245 3246 3247 3247 3248 3248 3247 3247 3247 3248 3247 3247 3247 3247 3247 3247 3246 3246
3121 3125 3129 3131 3134 3136 3138 3141 3143 3146 3148 3151 3154 3156 3159 3161 3164 3166 3168 3170 3173 3175 3177 3179 3181 3184 3187 3189 3191 3193 3196 3198 3199 3201 3203 3205 3207 3210 3212 3214 3216 3218 3219 3220 3222 3223 3224 3225 3226 3227 3228 3229 3230 3231 3232 3233 3234 3236 3237 3238 3239 3239 3240 3242 3242 3243 3244 3245 3245 3246 3247 3247 3247 3247 3247 3247 3247 3247 3247 3247 3247 3247 3247 3247 3247
3117 3122 3125 3128 3132 3134 3136 3138 3141 3143 3146 3148 3151 3153 3156 3159 3161 3164 3166 3168 3171 3173 3175 3177 3179 3182 3184 3186 3189 3191 3194 3196 3198 3199 3201 3203 3205 3207 3210 3212 3214 3215 3217 3218 3219 3221 3222 3223 3224 3225 3226 3227 3228 3230 3231 3232 3233 3234 3235 3237 3237 3238 3239 3240 3241 3242 3243 3244 3245 3245 3246 3246 3247 3247 3248 3247 3247 3247 3247 3247 3247 3247 3247 3247 3247
3114 3118 3122 3126 3129 3131 3133 3135 3138 3141 3144 3146 3149 3151 3154 3157 3159 3161 3164 3166 3168 3170 3172 3174 3177 3179 3181 3184 3186 3189 3192 3194 3196 3197 3199 3201 3203 3205 3207 3209 3211 3213 3214 3216 3217 3219 3220 3221 3222 3223 3224 3225 3227 3228 3229 3230 3231 3233 3234 3235 3236 3237 3238 3239 3240 3241 3242 3243 3244 3244 3245 3245 3246 3246 3247 3247 3247 3247 3247 3247 3247 3246 3246 3246 3246
3113 3115 3118 3122 3125 3128 3130 3132 3135 3138 3141 3144 3146 3149 3151 3154 3156 3159 3161 3163 3165 3168 3170 3172 3175 3177 3179 3182 3184 3187 3189 3191 3193 3195 3197 3199 3201 3203 3205 3206 3208 3210 3212 3214 3215 3217 3218 3219 3220 3221 3222 3223 3225 3226 3227 3228 3229 3231 3232 3234 3234 3235 3237 3238 3239 3240 3241 3241 3242 3243 3244 3244 3245 3245 3246 3246 3247 3247 3246 3246 3246 3246 3246 3246 3245
3110 3112 3115 3118 3122 3125 3126 3128 3131 3135 3138 3141 3143 3146 3148 3151 3154 3156 3158 3161 3163 3166 3168 3171 3173 3175 3177 3180 3182 3184 3187 3189 3191 3193 3195 3197 3199 3201 3202 3204 3206 3208 3210 3212 3213 3215 3216 3217 3218 3219 3220 3221 3223 3224 3225 3226 3228 3229 3231 3232 3233 3234 3235 3236 3237 3238 3239 3240 3240 3242 3242 3243 3243 3244 3245 3245 3246 3246 3246 3246 3245 3245 3245 3245 3245
3108 3109 3112 3115 3118 3120 3122 3124 3128 3132 3136 3138 3141 3144 3146 3149 3151 3153 3156 3159 3161 3164 3166 3168 3171 3173 3176 3178 3179 3182 3184 3186 3188 3191 3193 3195 3197 3199 3200 3202 3204 3205 3207 3209 3211 3212 3214 3215 3216 3217 3219 3220 3221 3222 3223 3225 3226 3228 3229 3230 3232 3233 3234 3235 3236 3237 3238 3238 3239 3240 3241 3241 3242 3242 3243 3244 3244 3244 3244 3244 3244 3244 3244 3244 3243
3106 3107 3109 3111 3113 3116 3118 3121 3124 3128 3133 3136 3138 3141 3144 3146 3149 3151 3154 3157 3159 3162 3164 3166 3168 3171 3173 3175 3177 3179 3181 3184 3186 3188 3191 3193 3195 3197 3198 3200 3202 3203 3205 3207 3208 3210 3211 3212 3214 3216 3217 3219 3220 3221 3222 3223 3225 3226 3228 3229 3230 3232 3233 3234 3235 3236 3237 3237 3238 3239 3240 3240 3241 3241 3242 3243 3243 3243 3242 3242 3242 3242 3242 3242 3241
3103 3105 3106 3108 3110 3113 3115 3118 3121 3125 3129 3133 3136 3139 3141 3144 3147 3149 3152 3155 3157 3159 3161 3163 3166 3168 3170 3172 3174 3177 3179 3182 3184 3186 3189 3191 3193 3194 3196 3198 3200 3201 3203 3204 3206 3207 3209 3210 3213 3214 3216 3217 3218 3219 3220 3222 3223 3224 3226 3228 3229 3230 3232 3233 3234 3235 3236 3236 3237 3238 3239 3239 3240 3240 3241 3241 3241 3241 3240 3240 3240 3240 3240 3239 3239
3101 3103 3104 3106 3108 3110 3113 3115 3118 3122 3126 3130 3133 3136 3139 3142 3144 3147 3150 3152 3155 3157 3159 3161 3163 3165 3167 3170 3172 3175 3177 3180 3182 3184 3186 3188 3190 3192 3194 3196 3198 3199 3200 3202 3203 3205 3206 3208 3210 3212 3214 3215 3217 3218 3219 3220 3222 3223 3225 3226 3228 3229 3231 3232 3233 3234 3235 3235 3236 3237 3237 3238 3239 3239 3239 3239 3239 3239 3238 3238 3238 3238 3237 3237 3236
3096 3099 3101 3103 3105 3108 3111 3113 3116 3119 3123 3126 3130 3134 3137 3140 3142 3145 3147 3150 3152 3155 3157 3159 3161 3163 3165 3167 3170 3173 3175 3178 3180 3182 3184 3186 3188 3190 3192 3194 3195 3196 3198 3200 3201 3203 3204 3206 3208 3209 3211 3213 3214 3216 3217 3219 3220 3222 3223 3225 3227 3228 3229 3230 3231 3232 3233 3234 3235 3235 3236 3236 3237 3237 3238 3237 3237 3237 3236 3236 3236 3235 3235 3234 3233
3090 3094 3097 3100 3103 3106 3108 3110 3113 3116 3120 3123 3127 3131 3134 3137 3140 3143 3145 3148 3150 3152 3155 3157 3159 3161 3163 3166 3168 3170 3173 3175 3178 3180 3182 3184 3186 3188 3190 3191 3193 3194 3196 3198 3199 3201 3202 3203 3205 3206 3208 3210 3211 3213 3215 3217 3219 3220 3222 3224 3225 3226 3227 3228 3229 3230 3231 3232 3233 3233 3234 3234 3235 3235 3235 3235 3235 3234 3233 3233 3234 3233 3232 3231 3230
3085 3090 3094 3098 3101 3103 3106 3108 3110 3114 3117 3121 3124 3128 3131 3135 3137 3140 3143 3146 3148 3150 3152 3154 3157 3159 3162 3164 3166 3168 3170 3173 3175 3177 3179 3181 3183 3185 3187 3189 3190 3192 3194 3196 3197 3199 3200 3201 3202 3204 3205 3206 3208 3211 3213 3215 3217 3219 3220 3222 3223 3224 3225 3226 3227 3228 3229 3230 3230 3231 3231 3232 3232 3232 3233 3232 3232 3232 3231 3231 3231 3230 3229 3228 3227
3080 3086 3091 3095 3099 3101 3103 3105 3108 3111 3115 3118 3122 3126 3129 3132 3135 3138 3141 3144 3146 3148 3150 3152 3155 3158 3160 3162 3163 3165 3167 3170 3172 3175 3177 3179 3181 3183 3184 3186 3188 3190 3192 3194 3195 3197 3198 3199 3200 3201 3203 3204 3206 3208 3211 3213 3215 3217 3218 3220 3221 3222 3223 3224 3225 3226 3226 3227 3228 3228 3229 3229 3229 3230 3230 3229 3229 3229 3228 3228 3227 3227 3226 3225 3224
3076 3082 3087 3092 3096 3098 3101 3104 3106 3109 3112 3115 3119 3123 3127 3130 3133 3136 3139 3142 3144 3146 3148 3151 3153 3156 3158 3159 3161 3163 3165 3167 3169 3172 3174 3177 3178 3180 3182 3184 3186 3188 3190 3191 3193 3195 3196 3197 3198 3199 3200 3202 3204 3206 3209 3210 3212 3214 3216 3217 3219 3220 3221 3221 3222 3223 3224 3225 3225 3226 3226 3226 3227 3227 3226 3226 3226 3226 3226 3225 3224 3224 3223 3222 3221
3074 3079 3084 3089 3093 3096 3099 3102 3104 3107 3110 3114 3118 3121 3125 3128 3131 3134 3137 3139 3142 3144 3146 3148 3151 3153 3155 3157 3159 3160 3162 3165 3167 3169 3172 3174 3175 3177 3179 3181 3183 3185 3187 3188 3190 3192 3194 3195 3196 3197 3198 3200 3202 3204 3206 3208 3210 3212 3213 3215 3216 3217 3218 3219 3220 3221 3221 3222 3222 3223 3223 3224 3224 3224 3224 3224 3224 3224 3224 3223 3222 3221 3220 3219 3219
3071 3076 3082 3087 3091 3094 3098 3100 3103 3106 3109 3112 3116 3119 3123 3125 3128 3131 3134 3137 3139 3141 3143 3146 3148 3151 3153 3155 3156 3158 3160 3163 3165 3167 3169 3171 3172 3174 3176 3178 3180 3182 3184 3185 3187 3189 3191 3193 3194 3195 3196 3198 3200 3202 3204 3205 3207 3209 3211 3212 3213 3214 3215 3216 3217 3218 3219 3219 3220 3220 3220 3221 3222 3222 3221 3221 3221 3221 3221 3220 3219 3218 3218 3217 3216
3069 3074 3079 3084 3089 3092 3095 3098 3101 3104 3107 3111 3114 3117 3120 3123 3126 3129 3132 3134 3137 3139 3141 3144 3146 3148 3150 3152 3154 3156 3158 3160 3163 3164 3166 3168 3170 3171 3174 3175 3177 3179 3181 3183 3185 3186 3188 3190 3191 3193 3194 3195 3197 3200 3201 3203 3205 3206 3207 3208 3209 3210 3211 3212 3214 3215 3216 3217 3217 3217 3217 3218 3219 3219 3219 3218 3218 3218 3217 3217 3216 3215 3215 3214 3213
3068 3073 3078 3082 3087 3090 3094 3097 3100 3103 3106 3109 3112 3115 3118 3121 3125 3127 3130 3132 3134 3136 3139 3141 3143 3145 3147 3149 3151 3154 3156 3158 3160 3162 3164 3165 3167 3169 3171 3173 3174 3176 3178 3180 3181 3183 3185 3187 3189 3190 3191 3193 3195 3197 3199 3200 3202 3203 3204 3205 3206 3207 3208 3209 3211 3212 3213 3213 3214 3214 3214 3215 3215 3215 3215 3215 3214 3214 3213 3213 3213 3212 3211 3210 3209
3067 3071 3076 3080 3085 3088 3092 3095 3098 3102 3105 3108 3111 3114 3117 3120 3123 3125 3128 3130 3132 3134 3137 3139 3141 3143 3145 3147 3149 3151 3153 3156 3157 3159 3161 3163 3165 3167 3169 3171 3172 3173 3175 3177 3178 3180 3183 3184 3186 3187 3188 3190 3193 3195 3196 3198 3199 3200 3201 3202 3203 3204 3205 3206 3207 3209 3209 3210 3210 3211 3211 3211 3211 3211 3211 3211 3210 3209 3209 3209 3209 3208 3207 3206 3205
3066 3069 3073 3077 3081 3085 3089 3093 3097 3100 3103 3106 3109 3113 3116 3119 3121 3123 3126 3128 3130 3132 3134 3136 3139 3141 3142 3144 3147 3149 3151 3153 3155 3156 3158 3160 3162 3165 3166 3168 3169 3171 3173 3175 3176 3178 3180 3181 3183 3184 3186 3188 3190 3192 3194 3195 3196 3197 3198 3199 3200 3201 3202 3203 3204 3205 3206 3207 3207 3207 3207 3207 3207 3207 3207 3207 3206 3205 3204 3205 3205 3204 3202 3201 3201
3064 3068 3071 3075 3079 3083 3087 3091 3095 3098 3101 3105 3108 3111 3114 3117 3119 3121 3123 3126 3128 3131 3133 3135 3137 3139 3141 3142 3144 3146 3148 3150 3152 3154 3156 3158 3160 3162 3164 3165 3167 3169 3170 3172 3174 3175 3176 3178 3180 3181 3183 3184 3186 3189 3190 3192 3193 3194 3195 3196 3197 3198 3199 3200 3201 3202 3203 3203 3204 3204 3204 3204 3203 3203 3203 3202 3201 3200 3200 3200 3201 3200 3198 3197 3197
3063 3066 3069 3073 3077 3081 3085 3090 3093 3097 3100 3104 3107 3110 3113 3115 3117 3119 3121 3124 3126 3129 3131 3133 3135 3137 3139 3140 3142 3144 3146 3148 3150 3152 3154 3155 3157 3159 3161 3162 3164 3166 3168 3169 3171 3172 3174 3175 3177 3178 3180 3181 3183 3185 3187 3188 3190 3191 3192 3193 3194 3195 3196 3197 3197 3198 3199 3200 3200 3200 3200 3200 3200 3199 3199 3198 3197 3196 3195 3195 3196 3196 3195 3193 3192
3062 3065 3069 3072 3076 3080 3084 3088 3092 3096 3099 3102 3106 3109 3111 3113 3115 3117 3120 3122 3125 3127 3130 3132 3133 3135 3136 3138 3140 3142 3144 3145 3147 3149 3151 3152 3154 3156 3157 3159 3161 3163 3164 3166 3168 3169 3171 3173 3174 3175 3177 3179 3180 3182 3183 3185 3186 3187 3189 3189 3190 3192 3193 3193 3194 3194 3195 3196 3196 3196 3196 3197 3196 3195 3195 3193 3192 3191 3190 3190 3192 3193 3192 3189 3186
3062 3065 3068 3071 3075 3079 3083 3087 3091 3095 3098 3101 3104 3107 3109 3112 3114 3116 3119 3121 3123 3126 3128 3130 3132 3133 3135 3136 3138 3140 3141 3143 3144 3146 3148 3149 3151 3152 3154 3156 3157 3159 3161 3163 3164 3166 3168 3169 3171 3172 3174 3176 3177 3179 3180 3181 3183 3184 3185 3186 3187 3188 3189 3189 3190 3190 3191 3191 3192 3192 3192 3192 3192 3191 3190 3189 3188 3186 3186 3185 3186 3188 3189 3186 3182
3061 3063 3067 3070 3074 3078 3082 3086 3090 3093 3097 3100 3102 3105 3108 3110 3113 3115 3118 3120 3122 3124 3126 3128 3130 3132 3133 3135 3137 3138 3140 3141 3143 3144 3145 3147 3148 3150 3151 3152 3154 3156 3157 3159 3160 3162 3164 3166 3167 3169 3171 3173 3174 3175 3177 3178 3179 3180 3181 3182 3183 3184 3185 3185 3186 3186 3187 3187 3187 3187 3187 3187 3187 3186 3186 3185 3183 3182 3181 3180 3179 3181 3184 3184 3179
3059 3062 3065 3069 3073 3077 3081 3085 3089 3092 3096 3098 3101 3104 3107 3109 3112 3114 3116 3118 3120 3122 3123 3125 3127 3129 3131 3133 3135 3136 3138 3139 3141 3142 3143 3145 3146 3147 3149 3150 3151 3152 3154 3155 3157 3158 3160 3161 3163 3165 3167 3168 3170 3172 3173 3174 3175 3176 3177 3178 3179 3180 3180 3181 3182 3182 3183 3183 3183 3183 3183 3183 3182 3182 3181 3180 3179 3178 3176 3176 3175 3174 3176 3178 3176
3058 3061 3064 3067 3071 3075 3079 3083 3087 3091 3094 3097 3100 3103 3105 3107 3110 3112 3115 3117 3118 3120 3122 3123 3125 3127 3129 3131 3133 3134 3136 3137 3139 3140 3142 3143 3144 3145 3147 3148 3149 3150 3151 3152 3154 3155 3156 3158 3159 3161 3162 3164 3165 3167 3169 3170 3170 3171 3172 3173 3174 3175 3176 3176 3177 3178 3178 3178 3178 3178 3178 3178 3178 3177 3176 3176 3175 3174 3172 3171 3171 3170 3170 3171 3171
3058 3060 3063 3066 3070 3073 3077 3081 3085 3089 3092 3095 3098 3101 3103 3105 3107 3110 3113 3115 3116 3118 3120 3122 3123 3125 3127 3129 3131 3133 3134 3135 3137 3138 3139 3141 3142 3143 3145 3146 3147 3148 3149 3150 3151 3152 3153 3154 3156 3157 3159 3160 3161 3162 3164 3165 3165 3166 3167 3168 3169 3170 3171 3172 3173 3173 3173 3173 3174 3174 3173 3173 3173 3172 3172 3171 3170 3169 3168 3167 3166 3166 3165 3166 3166
3058 3060 3063 3066 3069 3072 3075 3079 3083 3086 3089 3092 3096 3098 3100 3103 3105 3107 3110 3112 3114 3115 3117 3119 3121 3122 3124 3126 3128 3130 3132 3133 3134 3135 3137 3138 3140 3141 3142 3143 3145 3146 3146 3147 3148 3149 3150 3151 3152 3153 3154 3156 3157 3158 3159 3160 3160 3161 3162 3163 3164 3165 3166 3167 3168 3168 3168 3168 3169 3169 3169 3169 3168 3168 3167 3166 3165 3165 3164 3163 3162 3162 3162 3162 3161
3058 3060 3062 3065 3068 3071 3075 3078 3081 3084 3087 3090 3093 3095 3098 3101 3103 3105 3108 3110 3111 3113 3115 3116 3118 3119 3121 3123 3125 3127 3128 3130 3131 3133 3134 3136 3137 3138 3140 3141 3142 3143 3144 3145 3145 3146 3147 3147 3148 3149 3150 3151 3152 3154 3155 3155 3156 3157 3158 3159 3160 3161 3162 3162 3163 3163 3163 3163 3164 3164 3164 3164 3163 3163 3162 3161 3161 3161 3160 3159 3158 3158 3158 3157 3157
3058 3060 3062 3065 3068 3071 3074 3077 3080 3083 3085 3087 3090 3093 3095 3098 3101 3103 3106 3108 3110 3111 3113 3114 3116 3117 3119 3121 3122 3124 3125 3127 3128 3129 3131 3132 3134 3136 3137 3138 3139 3140 3141 3142 3142 3143 3143 3144 3145 3145 3146 3147 3148 3149 3150 3151 3152 3153 3154 3155 3156 3156 3157 3158 3158 3158 3158 3159 3159 3159 3159 3159 3159 3158 3157 3157 3157 3156 3156 3155 3155 3154 3154 3153 3153
3058 3061 3063 3065 3068 3070 3074 3077 3079 3081 3084 3086 3088 3091 3094 3096 3099 3101 3104 3106 3108 3110 3111 3113 3114 3116 3117 3119 3120 3121 3123 3124 3125 3126 3127 3129 3130 3132 3133 3135 3136 3137 3138 3139 3139 3140 3140 3140 3141 3142 3143 3143 3144 3145 3146 3147 3148 3148 3149 3150 3150 3151 3152 3152 3152 3153 3153 3154 3154 3154 3154 3154 3154 3153 3153 3153 3153 3152 3152 3152 3151 3151 3150 3149 3149
3056 3059 3062 3064 3067 3069 3072 3075 3078 3080 3082 3084 3087 3089 3092 3094 3097 3099 3101 3103 3105 3107 3108 3110 3111 3113 3114 3116 3117 3118 3119 3121 3122 3123 3124 3125 3126 3128 3129 3131 3132 3133 3134 3135 3136 3136 3137 3137 3137 3138 3139 3140 3140 3141 3142 3142 3143 3144 3144 3145 3145 3146 3147 3147 3147 3148 3148 3149 3149 3149 3149 3149 3149 3149 3149 3149 3149 3149 3149 3148 3148 3147 3146 3145 3144